Weather in King's Lynn

United Kingdom     52°44′49″N   0°24′11″E
temp.,
°C
wind,
m/s
gust,
m/s
humid.,
%
clouds,
%
prec.,
mm/h
press.,
hPa
HPBL,
m
8 march, mon
mon800:00+3wsw228081 0.0 102554
03:00+3w228896 0.0 102442
06:00+2w229398 0.0 102427
09:00+4sw3483100 0.0 1024197
12:00+7wsw4573100 0.0 1023492
15:00+6w4790100 0.7 1022480
18:00+4wsw4892100 1.1 1021231
21:00+4w379390 0.0 1021167
9 march, tue
tue900:00+3wsw339276 0.0 102163
03:00+1wsw359468 0.0 1020101
06:000wsw359352 0.0 1020101
09:00+4wsw47830 0.0 1019297
12:00+9wsw45701 0.0 1018640
15:00+10sw57680 0.0 1017926
18:00+7ssw5117933 0.0 1015331
21:00+5ssw61382100 0.0 1015498
10 march, wed
wed1000:00+5ssw81582100 0.0 1013737
03:00+5ssw101782100 0.2 1009921
06:00+6ssw111984100 1.4 1006887
09:00+7ssw91691100 1.5 1005742
12:00+8ssw81493100 5.1 1004609
15:00+9ssw71394100 2.0 1001581
18:00+11ssw91891100 2.0 997871
21:00+12ssw111990100 0.2 994997
11 march, thu
thu1100:00+12sw101891100 2.3 9921079
03:00+9sw11227580 1.1 9901640
06:00+8sw13237677 1.3 9891736
09:00+9wsw15247078 0.3 9881944
12:00+9wsw14216388 0.4 9912068
15:00+9wsw13216192 0.4 9932163
18:00+5w11198296 1.3 9961497
21:00+5w8158075 0.0 1001970
12 march, fri
fri1200:00+4wsw6148037 0.0 1004654
03:00+3sw7148235 0.0 1005607
06:00+3sw7168052 0.0 1005725
09:00+6sw101679100 0.0 10041268
12:00+8sw111769100 0.1 10021635
15:00+7sw101680100 0.4 9991285
18:00+5sw71381100 0.6 998833
21:00+3wsw6138381 0.6 999547